Location: Althorst
(53.6379°N, 10.7715°E)
Time: 08:38:26
(UTC+00:00)

Aureole 1 Rocket - Pass Details

Date: 10 December 2019
Orbit: 378 x 1382 km, 73.9° (Epoch: 26 January)

Event Time Altitude Azimuth Distance (km) Brightness Sun altitude
Rises 17:09:08 0° 188° (S) 2,240 6.2 -18.2°
Reaches altitude 10° 17:11:06 10° 181° (S) 1,406 5.1 -18.5°
Enters shadow 17:12:51 29° 157° (SSE) 767 3.4 -18.7°
